Tracking 32571 objects as of 17-Dec-2025
HD Live streaming from Space Station
objects crossing your sky now

COSMOS 1538

Track COSMOS 1538 now!
10-day predictions
COSMOS 1538 is classified as:


NORAD ID: 14759
Int'l Code: 1984-019A
Perigee: 769.9 km
Apogee: 798.1 km
Inclination: 74.0 °
Period: 100.4 minutes
Semi major axis: 7154 km
RCS: 2.0376 m2 (large)
Launch date: February 21, 1984
Source: Commonwealth of Independent States (former USSR) (CIS)
Launch site: PLESETSK MISSILE AND SPACE COMPLEX (PKMTR)
Your satellite tracking list
Your tracking list is empty




NASA's NSSDC Master Catalog

Two Line Element Set (TLE):
1 14759U 84019A   25351.00971776  .00000123  00000-0  52814-4 0  9991
2 14759  74.0397 252.8488 0019691  86.2132 274.1271 14.34461028186847
Source of the keplerian elements: AFSPC